Temp_Advection
nan nan nan nan nan nan nan nan nan nan nan nan nan nan nan nan nan nan nan nan nan nan nan nan nan nan nan nan nan nan nan nan nan nan nan nan nan nan nan nan nan nan nan nan
nan -0 -0 0 -0 -0 -0 -0 -0 0 0 0 -0 -0 -0 -0 -0 -0 -0 -0 0 0 0 0 0 0 0 0 0 0 -0 -0 -0 -0 -0 -0 -0 -0 -0 -0 -0 -0 0 nan
nan 0 -0 0 -0 -0 -0 -0 -0 0 -0 0 0 0 0 0 0 0 0 0 0 0 0 0 0 0 0 0 0 0 0 0 0 0 0 0 0 0 0 0 0 0 0 nan
nan 0 0 -0 0 -0 0 0 -0 0 0 0 0 0 0 0 0 0 0 1 1 1 1 1 0 0 0 0 0 0 0 0 0 0 0 0 0 0 0 0 0 0 0 nan
nan 0 0 -0 -0 -0 -0 0 -0 0 0 0 0 -0 -0 0 0 0 1 1 1 1 0 0 0 0 0 0 0 0 0 0 0 0 0 0 0 0 0 0 0 0 0 nan
nan 0 0 -0 -0 0 -0 0 -0 -0 -0 0 -0 0 -0 0 0 0 0 0 1 1 0 0 0 0 0 0 0 0 0 0 0 0 0 0 1 0 0 0 0 0 0 nan
nan 0 -0 0 0 -0 -0 -0 0 -0 -0 -0 -0 -0 -0 0 0 0 0 0 1 1 1 1 1 0 0 0 0 0 0 0 0 0 0 0 0 0 0 0 0 0 -0 nan
nan -0 -0 0 -0 0 -0 0 0 -0 0 0 -0 -0 0 0 0 0 0 0 0 0 1 1 0 0 0 0 0 -0 0 1 0 0 0 0 0 0 0 0 0 -0 0 nan
nan -0 -0 0 0 0 0 0 0 0 0 0 0 0 0 0 0 0 0 0 0 0 0 0 0 0 0 0 -0 0 1 0 0 0 0 0 1 0 0 -0 0 -0 -0 nan
nan -0 0 0 0 0 0 -0 0 0 0 0 0 0 0 0 0 0 0 0 0 0 0 0 0 0 0 0 0 1 1 0 0 0 1 0 0 0 0 -0 -0 0 0 nan
nan 0 -0 0 0 0 0 0 0 0 0 0 0 0 0 0 0 0 0 0 0 0 0 0 0 -0 0 0 1 1 1 0 0 1 0 -0 -0 -0 0 0 0 0 0 nan
nan -0 -0 0 0 0 0 -0 -0 -0 0 -0 -0 0 0 0 0 0 0 0 0 0 0 0 -0 0 0 0 0 0 0 0 0 0 -0 -0 -0 -0 -0 0 -0 0 0 nan
nan -0 -0 -0 0 0 0 -0 -0 -0 -0 -0 -0 -0 0 0 0 0 0 0 0 0 0 0 0 0 0 0 0 0 0 0 -0 -1 -0 -0 -0 -0 -0 -0 -0 0 0 nan
nan -0 -0 0 0 0 -0 -0 -0 -0 -0 -0 -0 -0 -0 0 0 0 0 0 0 0 0 0 -0 -0 -0 -0 -1 -1 -1 -1 -1 -0 -0 -0 0 0 0 -0 -0 0 0 nan
nan 0 0 0 0 0 -0 -0 -0 -0 -0 0 -0 -0 -0 -0 0 0 0 0 0 -0 -0 -0 -0 -0 -0 -1 -1 -1 -1 -0 -0 -0 -0 0 0 -0 -0 -0 0 0 -0 nan
nan 0 0 0 0 0 -0 -0 -0 -0 -0 -0 -0 -0 -0 -0 -0 0 0 0 -0 -0 0 -0 -0 0 -0 -0 -0 -0 -0 0 -0 -0 0 -0 -0 -0 -0 -0 0 0 0 nan
nan 0 0 0 -0 -0 -0 -0 -0 -0 -0 -0 -0 -0 -0 -0 -0 -0 0 0 0 0 0 -0 0 0 0 -0 -0 -0 0 0 0 0 -0 0 -0 -0 0 0 0 0 0 nan
nan 0 0 -0 -0 -0 -0 -0 -0 0 -0 -1 -1 -0 -0 -0 -0 0 0 0 0 0 -0 0 0 0 0 0 0 1 1 0 0 0 0 0 0 0 0 0 0 0 0 nan
nan 0 0 -0 -0 -0 -0 -0 -0 -0 -0 -0 -1 -1 -1 -0 -0 -0 0 0 0 -0 -0 0 0 0 0 1 1 1 1 0 0 0 0 0 0 -0 -0 0 0 0 0 nan
nan -0 0 -0 -0 -0 -0 -0 -0 -0 -0 -0 -0 -0 -0 -0 -0 -0 -0 -0 0 0 0 0 0 0 0 1 1 0 0 0 1 0 0 0 -0 -0 0 0 0 0 0 nan
nan 0 0 -0 -0 -0 -0 -0 -0 -0 -0 -0 -0 -0 -0 -0 -0 -0 -0 -0 -0 0 0 0 0 0 0 1 1 0 1 0 0 1 0 -0 0 0 0 0 0 0 0 nan
nan -0 -0 -0 -0 -0 -0 -0 -0 -0 -0 -0 -0 -0 -0 -0 -0 -0 -0 -0 -0 -0 0 0 0 0 1 1 0 0 0 0 0 0 0 1 0 -0 -0 0 0 0 0 nan
nan -0 -0 -0 -0 -0 0 -0 -0 -0 -0 -0 -0 -0 -0 -0 -0 -0 -0 -0 -0 -0 -0 0 0 0 0 0 0 0 0 0 0 0 0 0 0 1 1 0 -1 0 0 nan
nan 0 0 -0 -0 -0 -0 -0 -0 -0 -0 -0 -0 -0 -0 -0 -0 -0 -0 -0 -0 -0 -0 -0 0 0 0 0 0 0 0 0 -0 0 0 0 0 -0 0 1 0 -1 0 nan
nan 0 -0 -0 -0 -0 -0 -0 -0 -0 0 0 -0 -0 -0 -0 -0 -0 -0 -0 -0 -0 -0 -0 -0 0 0 -0 -0 0 0 0 0 0 0 0 0 0 0 1 -0 -1 0 nan
nan -0 -0 -0 -0 -0 -0 -0 -0 -0 -0 -0 -0 -0 -0 -0 -0 -0 -0 -0 -0 -0 -0 -0 -0 0 0 0 0 0 0 0 0 -0 -0 -0 0 0 0 1 0 -0 -0 nan
nan nan nan nan nan nan nan nan nan nan nan nan nan nan nan nan nan nan nan nan nan nan nan nan nan nan nan nan nan nan nan nan nan nan nan nan nan nan nan nan nan nan nan nan
Wind_Speed
6 5 5 11 13 8 4 4 4 3 7 8 10 9 13 18 17 19 19 20 18 17 15 13 11 7 5 3 3 3 2 3 3 1 3 4 5 5 5 5 5 5 5 5
5 6 6 6 9 10 6 2 5 1 2 6 15 19 15 15 14 21 23 22 21 19 16 13 10 8 6 3 1 1 1 2 3 5 6 7 7 7 7 7 7 7 7 7
1 4 6 3 5 6 4 5 5 4 4 5 6 7 11 11 9 11 17 24 24 20 16 14 11 9 7 5 3 3 3 5 7 8 9 10 10 8 9 9 8 8 8 9
3 3 1 4 1 4 6 4 4 3 5 5 6 6 4 2 6 8 13 22 23 18 15 14 12 10 9 8 5 5 5 8 9 10 11 10 7 7 8 9 11 9 10 11
3 2 2 0 3 4 5 5 5 6 5 6 5 3 1 2 5 8 12 17 16 13 11 12 13 11 9 9 8 7 7 9 10 9 10 10 11 8 10 12 14 13 12 11
2 3 2 2 2 3 3 2 4 8 5 4 2 2 3 6 4 9 10 11 11 11 11 11 13 11 10 10 9 9 7 8 9 10 10 12 12 11 12 12 12 13 15 14
1 2 2 2 2 3 3 3 10 15 9 5 3 2 2 7 8 10 11 12 12 12 12 13 14 13 13 11 10 9 9 9 10 10 12 13 13 12 13 14 15 15 14 13
1 2 1 3 3 2 3 6 9 7 8 7 6 4 5 8 9 10 11 13 13 12 12 14 16 16 13 11 10 10 11 11 12 14 15 14 13 16 16 15 14 13 12 10
3 3 2 4 7 7 6 6 2 3 5 5 4 5 3 7 9 10 11 11 10 11 12 14 16 16 15 13 13 12 13 14 15 15 13 15 17 18 16 14 12 11 10 7
2 1 4 8 9 7 5 5 4 4 3 2 3 3 5 8 10 10 12 11 10 11 12 14 15 15 14 13 14 15 16 17 18 16 17 18 15 14 13 12 11 8 7 6
2 3 10 7 8 6 5 3 2 1 0 1 2 3 4 6 8 9 11 11 10 9 10 12 13 14 14 15 17 18 19 20 18 18 20 19 16 14 11 9 8 6 5 4
3 1 3 5 7 5 3 2 2 0 1 2 2 2 4 5 6 8 11 12 11 10 10 10 11 13 14 16 19 22 22 21 21 22 20 17 15 14 12 10 8 7 6 4
5 5 9 8 5 2 0 1 3 3 3 3 3 3 4 5 6 6 9 13 12 10 10 11 12 13 15 18 21 22 21 23 23 20 18 17 15 12 11 11 10 9 7 6
6 6 5 7 3 1 1 3 4 3 2 2 4 4 3 4 6 8 10 11 12 13 11 11 13 15 16 20 22 22 22 20 19 19 17 16 14 13 12 11 10 9 8 7
5 4 6 5 3 3 5 6 6 5 4 4 5 6 6 6 7 8 8 10 13 15 13 13 15 18 20 21 22 20 20 19 18 18 18 16 15 14 13 13 12 11 10 9
3 2 4 5 5 5 6 7 7 7 7 7 8 8 8 9 9 10 11 11 16 18 16 15 15 18 22 23 22 20 19 18 19 20 20 19 17 15 14 14 13 12 11 10
2 2 3 3 3 5 5 6 8 9 11 11 11 10 10 11 12 12 13 13 14 16 18 17 15 18 23 25 25 23 20 21 21 22 22 20 18 17 15 15 15 13 12 11
3 5 6 6 7 8 8 9 11 12 11 12 11 12 12 14 16 15 15 14 15 17 18 19 19 19 24 27 27 26 25 24 24 24 23 22 21 19 18 17 15 14 13 13
2 3 5 6 7 8 9 10 11 11 11 12 12 12 14 17 17 16 15 16 17 19 18 18 20 22 23 27 29 29 29 28 27 25 25 23 23 22 20 18 16 15 14 14
3 3 2 2 3 4 5 7 9 9 10 11 11 10 11 10 10 10 12 15 16 17 16 16 19 24 26 26 28 30 31 32 31 28 27 27 25 23 21 19 17 16 16 15
7 8 8 7 7 6 7 8 8 8 8 9 9 9 10 9 9 9 11 13 11 14 16 17 20 23 27 28 30 32 33 34 34 32 29 27 25 24 22 20 18 17 16 16
6 6 6 6 5 6 7 9 9 9 9 9 8 8 9 9 9 10 12 14 14 15 17 18 19 21 24 28 32 34 34 35 34 34 33 32 28 25 22 21 20 18 16 16
4 5 5 6 6 7 9 9 9 8 9 10 10 10 10 10 10 10 9 9 12 13 16 18 18 18 20 23 28 33 35 35 35 34 34 33 32 31 27 21 20 19 18 17
4 6 7 7 7 7 7 8 9 9 9 10 10 10 11 11 8 7 9 10 10 12 12 13 14 16 18 21 24 25 29 32 33 33 31 32 31 31 29 25 20 19 18 18
5 7 7 8 8 8 9 9 9 9 8 9 10 10 10 10 11 10 10 10 9 9 10 11 11 13 15 19 20 21 23 26 29 30 30 30 31 30 27 26 18 18 19 19
7 8 8 9 8 9 10 10 10 11 11 10 10 10 10 10 10 11 11 11 10 8 8 8 10 12 15 16 17 18 20 21 24 26 27 27 28 28 27 27 21 19 19 18
8 8 7 7 8 9 10 11 11 11 12 13 12 12 12 12 12 12 12 12 11 11 10 9 9 10 13 15 16 17 18 19 21 23 24 24 25 25 26 27 23 18 20 19
Wind_Direction
37 83 140 165 168 158 136 141 126 282 170 173 156 151 159 164 179 186 188 191 198 200 203 204 208 214 231 265 316 305 323 344 346 79 138 136 139 152 159 158 161 154 145 141
47 42 69 115 159 165 166 172 301 58 122 179 173 167 183 199 208 208 202 198 198 205 208 212 215 225 233 245 271 187 136 85 134 145 147 139 143 143 144 144 144 144 142 143
337 112 77 28 211 173 166 173 170 179 212 124 150 169 194 206 214 218 211 201 201 207 213 217 220 229 221 218 174 188 175 156 163 151 143 133 130 131 128 124 131 133 133 128
148 86 58 249 14 170 177 185 219 111 136 134 135 122 129 164 222 216 203 202 201 202 206 212 214 215 214 203 186 195 182 176 163 154 152 139 134 147 164 155 149 144 137 127
127 122 128 219 245 166 153 214 173 154 131 101 99 114 92 213 214 194 183 192 201 208 210 202 205 207 203 196 193 188 189 181 175 171 170 159 144 154 150 149 139 134 125 120
72 114 155 192 156 94 104 209 216 149 133 101 98 174 251 208 194 183 191 201 211 216 212 205 205 205 203 198 197 195 197 196 190 185 174 164 153 156 153 145 141 134 130 124
352 118 304 166 145 94 150 208 126 129 132 136 144 177 198 197 198 203 205 209 214 216 216 207 205 209 212 205 195 198 201 212 198 187 174 169 158 154 151 148 141 135 133 127
41 83 261 159 103 190 153 114 112 124 171 159 154 165 214 224 228 221 220 215 215 215 214 208 208 214 221 222 209 198 204 198 183 173 169 164 163 154 150 145 144 141 138 137
166 210 201 105 129 125 130 121 118 148 153 160 171 200 223 235 250 235 224 215 213 217 219 217 215 215 219 219 208 192 193 183 173 167 166 166 163 156 154 152 157 151 148 150
71 264 169 116 114 115 105 98 98 147 171 192 212 238 248 239 234 229 222 217 220 225 222 218 213 213 215 214 203 193 184 179 172 173 172 165 163 164 166 166 167 167 169 174
279 80 98 110 122 117 118 120 126 112 160 259 264 259 272 250 241 232 227 220 227 227 219 215 213 212 209 204 201 192 180 176 174 177 173 174 173 175 178 178 179 187 192 202
224 231 150 156 147 131 126 75 45 351 258 289 310 300 284 267 257 242 231 224 227 226 224 218 210 209 205 201 192 183 179 181 183 183 183 184 185 187 188 196 199 204 209 229
171 108 112 143 159 130 146 297 293 306 303 303 301 314 306 281 265 258 243 232 231 235 234 221 213 207 196 186 180 185 189 186 187 190 192 194 195 200 209 206 208 215 224 244
159 160 146 170 191 213 350 339 331 312 305 318 330 325 324 291 266 257 265 247 232 231 228 221 215 205 190 185 188 190 191 191 196 198 200 204 207 210 212 217 225 228 235 250
179 184 178 177 211 246 291 304 302 298 289 282 289 301 308 299 284 278 270 245 233 233 231 226 220 209 198 193 191 191 193 199 204 207 209 212 213 216 218 222 227 234 243 256
200 243 220 204 213 252 277 287 290 291 290 287 288 289 289 287 282 272 259 249 237 239 235 231 230 216 207 202 201 202 205 208 213 213 215 217 220 224 228 233 237 242 248 260
237 184 225 238 271 289 291 285 283 287 290 289 285 286 286 283 278 268 262 258 253 250 246 241 238 226 215 214 214 213 219 219 220 217 220 223 227 232 237 241 243 247 255 264
261 258 272 280 289 291 288 284 289 286 294 293 293 289 288 290 283 269 260 258 254 248 247 242 237 233 223 219 220 223 221 223 226 224 224 225 229 234 239 244 246 250 256 266
276 275 286 293 298 297 297 296 297 300 298 294 294 294 293 289 280 264 250 248 250 253 252 248 241 238 234 228 225 224 229 228 227 227 228 230 232 235 240 244 248 253 257 264
58 38 22 355 325 318 317 311 311 309 303 299 299 295 291 285 275 262 251 250 255 260 257 249 245 242 239 235 234 232 231 232 230 227 230 230 234 239 242 245 248 254 260 265
54 50 48 45 40 29 18 7 359 346 331 320 312 307 300 290 281 272 264 261 259 258 256 247 242 241 241 240 236 237 235 234 233 230 225 231 237 240 242 245 249 255 260 265
14 17 14 9 4 355 356 356 354 354 358 352 339 329 317 306 292 280 276 275 268 262 259 256 250 244 242 241 240 241 240 239 238 234 231 224 226 236 242 248 250 255 260 264
12 15 12 8 7 6 1 354 352 351 354 357 360 1 350 337 321 310 298 283 278 273 265 258 254 248 244 241 242 242 242 242 240 238 237 236 233 232 229 234 249 253 259 265
1 359 357 358 357 352 352 359 359 358 359 358 354 353 355 0 358 331 310 303 296 281 276 268 252 246 240 239 242 244 243 243 242 242 244 243 243 242 243 233 231 252 260 264
347 344 345 343 343 348 351 351 351 351 358 0 357 350 347 347 346 346 339 322 309 302 292 277 266 246 243 244 246 248 248 247 245 245 247 247 246 247 247 243 231 249 258 262
333 333 334 336 339 344 347 348 350 350 350 356 357 352 348 340 337 338 338 336 336 326 319 297 270 258 251 252 252 251 250 248 247 247 248 247 245 246 242 242 228 241 256 260
320 323 333 336 335 338 340 341 343 346 345 343 346 346 343 341 337 333 329 329 328 327 322 312 297 277 268 262 258 254 252 252 249 248 248 245 244 244 238 240 229 234 249 252
Height
1421 1420 1421 1426 1433 1440 1453 1442 1444 1440 1439 1441 1441 1443 1444 1447 1451 1454 1456 1459 1460 1462 1463 1464 1464 1464 1464 1465 1465 1466 1465 1464 1465 1465 1465 1465 1466 1467 1468 1468 1469 1470 1471 1472
1429 1425 1425 1430 1431 1438 1440 1444 1443 1439 1440 1437 1439 1441 1444 1446 1449 1451 1453 1454 1456 1458 1460 1461 1462 1463 1463 1463 1464 1464 1464 1464 1464 1465 1465 1465 1466 1467 1468 1469 1470 1471 1472 1473
1447 1432 1435 1446 1433 1434 1436 1436 1439 1443 1439 1436 1440 1442 1444 1445 1446 1448 1449 1451 1452 1454 1457 1459 1460 1460 1461 1462 1462 1464 1464 1463 1464 1464 1465 1466 1467 1468 1469 1469 1470 1472 1472 1473
1448 1439 1452 1435 1431 1430 1434 1435 1437 1436 1437 1437 1439 1441 1442 1443 1444 1445 1446 1447 1450 1452 1454 1456 1457 1458 1459 1460 1461 1463 1462 1463 1464 1464 1466 1467 1468 1469 1469 1469 1471 1472 1473 1474
1444 1446 1438 1434 1433 1433 1434 1437 1434 1436 1437 1438 1440 1441 1442 1442 1443 1444 1445 1446 1449 1451 1452 1453 1454 1456 1457 1458 1460 1461 1461 1462 1463 1465 1466 1467 1468 1469 1469 1470 1472 1474 1475 1476
1444 1440 1435 1430 1430 1429 1430 1439 1431 1434 1438 1439 1440 1445 1442 1441 1442 1442 1444 1446 1447 1448 1450 1451 1452 1454 1455 1456 1458 1460 1461 1462 1463 1464 1466 1467 1467 1469 1470 1473 1474 1475 1476 1478
1440 1446 1437 1430 1430 1430 1437 1441 1431 1433 1436 1438 1440 1441 1440 1440 1441 1442 1443 1444 1445 1446 1448 1449 1450 1451 1453 1455 1456 1458 1460 1461 1462 1464 1465 1467 1468 1471 1472 1474 1475 1476 1478 1479
1438 1438 1443 1429 1431 1433 1432 1431 1432 1434 1437 1437 1438 1439 1439 1439 1440 1441 1441 1442 1443 1445 1446 1448 1449 1449 1451 1453 1455 1457 1459 1460 1461 1463 1466 1468 1470 1472 1474 1475 1476 1477 1478 1480
1436 1435 1430 1429 1429 1431 1431 1431 1433 1434 1436 1437 1437 1438 1437 1437 1437 1438 1439 1440 1441 1443 1443 1444 1446 1448 1450 1452 1453 1454 1457 1459 1461 1464 1466 1468 1471 1472 1474 1475 1478 1478 1479 1481
1433 1431 1430 1430 1431 1431 1432 1432 1433 1434 1435 1435 1436 1436 1436 1435 1436 1436 1437 1438 1439 1440 1440 1442 1443 1445 1447 1449 1450 1452 1455 1458 1461 1463 1466 1469 1471 1473 1474 1476 1477 1478 1479 1480
1432 1430 1431 1433 1433 1433 1433 1434 1434 1435 1435 1435 1435 1434 1434 1434 1434 1435 1435 1436 1437 1438 1439 1440 1441 1443 1444 1446 1448 1451 1454 1457 1460 1463 1466 1468 1470 1473 1475 1476 1477 1478 1479 1480
1433 1430 1431 1433 1434 1434 1434 1434 1435 1435 1435 1434 1434 1434 1433 1433 1432 1433 1433 1434 1435 1436 1437 1438 1439 1440 1441 1444 1447 1450 1452 1456 1459 1462 1465 1468 1470 1471 1473 1475 1476 1477 1478 1479
1429 1430 1431 1432 1434 1434 1434 1434 1434 1434 1434 1434 1433 1432 1432 1431 1431 1431 1431 1432 1433 1434 1435 1436 1437 1438 1440 1442 1445 1449 1452 1455 1458 1461 1464 1466 1468 1470 1472 1473 1474 1475 1476 1477
1427 1429 1431 1432 1432 1433 1434 1434 1433 1433 1433 1432 1432 1431 1430 1429 1429 1429 1429 1430 1431 1432 1433 1434 1435 1437 1439 1441 1444 1447 1451 1454 1457 1460 1463 1465 1467 1468 1470 1471 1473 1474 1474 1474
1426 1427 1428 1430 1431 1432 1432 1432 1432 1432 1431 1431 1430 1429 1429 1428 1427 1427 1427 1428 1429 1430 1431 1432 1433 1435 1437 1440 1443 1446 1449 1452 1455 1458 1461 1463 1465 1466 1468 1469 1470 1471 1471 1471
1426 1426 1427 1427 1428 1429 1429 1429 1429 1429 1428 1428 1428 1427 1426 1425 1425 1424 1424 1425 1425 1425 1427 1429 1431 1433 1436 1439 1441 1444 1447 1450 1452 1455 1457 1459 1461 1463 1465 1466 1467 1467 1468 1468
1425 1426 1427 1426 1426 1426 1426 1426 1426 1425 1425 1424 1423 1423 1422 1422 1421 1421 1421 1422 1422 1423 1424 1426 1428 1430 1433 1436 1438 1441 1444 1446 1449 1451 1453 1455 1458 1459 1461 1462 1463 1464 1464 1464
1423 1424 1424 1424 1423 1423 1423 1423 1422 1421 1421 1419 1419 1418 1417 1417 1417 1416 1416 1417 1418 1419 1419 1421 1424 1426 1428 1431 1434 1437 1440 1442 1444 1446 1449 1451 1453 1455 1457 1458 1459 1460 1460 1460
1422 1422 1422 1422 1421 1421 1420 1420 1419 1418 1417 1416 1414 1413 1412 1412 1411 1411 1411 1411 1413 1414 1415 1417 1419 1421 1424 1426 1429 1431 1434 1436 1438 1441 1443 1446 1448 1450 1451 1453 1454 1455 1455 1455
1421 1420 1420 1419 1418 1418 1418 1417 1416 1414 1413 1412 1410 1409 1408 1407 1406 1406 1406 1407 1409 1410 1411 1413 1414 1414 1417 1420 1422 1425 1427 1429 1432 1434 1437 1440 1442 1444 1446 1448 1449 1449 1449 1450
1422 1421 1420 1419 1419 1418 1417 1416 1414 1412 1411 1409 1407 1406 1405 1404 1403 1403 1403 1403 1405 1405 1405 1406 1407 1408 1410 1412 1415 1417 1419 1421 1423 1426 1429 1432 1436 1438 1440 1442 1443 1444 1444 1444
1422 1421 1420 1420 1419 1418 1417 1415 1414 1412 1410 1407 1405 1404 1402 1401 1400 1399 1399 1399 1399 1399 1399 1400 1401 1402 1403 1405 1407 1409 1411 1413 1416 1419 1421 1423 1427 1431 1434 1436 1437 1437 1438 1438
1423 1422 1421 1420 1419 1418 1416 1415 1413 1411 1409 1407 1405 1402 1400 1399 1397 1396 1396 1395 1395 1394 1393 1394 1394 1395 1397 1398 1398 1400 1402 1405 1408 1411 1414 1416 1419 1421 1424 1427 1430 1431 1431 1432
1422 1421 1420 1419 1418 1417 1416 1414 1412 1410 1408 1406 1404 1402 1400 1398 1397 1395 1394 1393 1391 1390 1389 1389 1389 1389 1390 1391 1391 1393 1395 1397 1401 1404 1407 1410 1412 1415 1417 1419 1422 1424 1425 1425
1422 1421 1419 1418 1417 1416 1414 1413 1411 1409 1408 1406 1404 1401 1399 1397 1396 1394 1392 1391 1389 1387 1386 1385 1385 1385 1385 1385 1386 1387 1389 1391 1394 1397 1399 1402 1404 1407 1410 1412 1414 1417 1418 1419
1420 1419 1418 1417 1416 1414 1413 1411 1410 1408 1406 1404 1403 1400 1398 1397 1395 1393 1391 1389 1387 1384 1383 1382 1381 1381 1381 1381 1382 1383 1384 1386 1387 1389 1392 1394 1396 1399 1401 1404 1406 1409 1411 1412
1419 1418 1417 1416 1415 1413 1411 1410 1408 1407 1405 1403 1401 1399 1397 1395 1393 1391 1389 1387 1384 1383 1381 1379 1378 1377 1377 1376 1376 1377 1378 1380 1381 1383 1384 1386 1388 1391 1393 1396 1398 1401 1403 1404